GOES 9 [-]

Last updated on Jan. 18, 2020, 4:37 a.m. UTC

1 23581U 95025A   20017.42749142 -.00000017  00000-0  00000-0 0  9992
2 23581  11.8877  30.6515 0002424 349.7268 153.0160  0.98798235 89615
UTC
Height (km)
Latitude
Longitude
Inclination
Orbital Period
UTC large
Height (km)
Speed (km/s)
/
Latitude / Longitude
Inclination (degrees)
Orbital Period (minutes)
Azimuth
Elevation
Range (km)
Doppler Factor
iOS Compass Heading
iOS Angle

Next 30 passes for location: Hong Kong

Rise time Rise Azimuth (degrees) Set time Set Azimuth (degrees) Duration Max altitude (degrees)

No matching passes for this satellites